Regional Weather Roundup
Issued by NWS

Home | Current Version | Previous Version | Text Only | Print | Product List | Glossary Off
Versions: 1 2 3 4 5 6 7 8 9 10 11 12 13 14 15 16 17 18 19 20 21 22 23 24 25 26 27 28 29 30 31 32 33 34 35 36 37 38 39 40 41 42 43 44 45 46 47 48 49 50

000
ASUS43 KLOT 190508
RWRIL

ILLINOIS REGIONAL WEATHER ROUNDUP
NATIONAL WEATHER SERVICE CHICAGO/ROMEOVILLE IL
1100 PM CST WED JAN 18 2017

NOTE: "FAIR" INDICATES FEW OR NO CLOUDS BELOW 12,000 FEET WITH NO
SIGNIFICANT WEATHER AND/OR OBSTRUCTIONS TO VISIBILITY.

* THESE STATIONS ARE NOT UNDER NWS QUALITY CONTROL. THEY ALSO MAY NOT
  REPORT WEATHER SUCH AS PRECIPITATION OR FOG.

ILZ001-002-007-009-015-016-024-190600-
NORTHWEST ILLINOIS

CITY           SKY/WX    TMP DP  RH WIND       PRES   REMARKS
MOLINE         FOG       28  25  88 E3        30.02F VSB 1/4
STERLING*      CLEAR     31  31 100 SE3       30.04S FOG
SAVANNA*       FOG       30  30  99 SE5       30.02S VSB 3/4 WCI  25
$$

ILZ003-004-008-010-011-017-018-190600-
NORTH CENTRAL ILLINOIS

CITY           SKY/WX    TMP DP  RH WIND       PRES   REMARKS
ROCKFORD       CLEAR     30  28  92 SE6       30.04F FOG     WCI  24
FREEPORT*      CLEAR     31  30  97 S7        30.03F FOG     WCI  24
ROCHELLE*      CLEAR     32  32  99 S8        30.04S FOG     WCI  25
DE KALB*       FOG       31  31  99 S9        30.04S VSB 1/2 WCI  23
$$

ILZ005-006-012>014-019>023-190600-
NORTHEAST ILLINOIS

CITY           SKY/WX    TMP DP  RH WIND       PRES   REMARKS
CHICAGO-OHARE  CLOUDY    32  30  92 S7        30.05R FOG     WCI  26
CHICAGO-MIDWAY CLOUDY    33  30  88 S6        30.06S WCI  28
AURORA         CLOUDY    32  30  92 SE3       30.05F FOG
LANSING*       CLOUDY    32  32 100 CALM      30.07F FOG
JOLIET*        FOG       29  29  99 CALM      30.07S VSB 1
WAUKEGAN       CLOUDY    34  32  92 SW7       30.03S FOG     WCI  28
DUPAGE AIRPORT CLOUDY    30  27  88 S5        30.04F FOG     WCI  25
KANKAKEE*      CLOUDY    35  33  94 S9        30.09R WCI  28
WHEELING       CLOUDY    33  30  88 CALM      30.05F
MORRIS*        CLOUDY    32  31  96 CALM      30.06S FOG
ROMEOVILLE*    PTCLDY    31  31 100 S7        30.06F FOG     WCI  24
NORTHERLY ISL    N/A     36  32  85 S6          N/A  WCI  31
$$

LMZ740>746-190600-
SOUTHERN LAKE MICHIGAN

STATION/POSITION SKY/WX   TEMP    WIND        PRES    VSBY  WAVE
                          AIR SEA DIR/SP/G                  HT/PER
                          (F)     (DEG/KT/KT) (MB)    (MI)  (FT/S)
HARRISON CRIB              37     210/ 14/ 16   N/A
BURNHAM HARBOR             36     200/  5/  9   N/A
CALUMET HARBOR             35     200/  7/  9 1017.6R
BURNS HARBOR               37     200/ 10/ 19 1019.0
$$

ILZ025>027-034>036-040-047-049-050-058-095>099-190600-
WEST-CENTRAL ILLINOIS

CITY           SKY/WX    TMP DP  RH WIND       PRES   REMARKS
QUINCY         PTCLDY    36  33  89 SE6       30.02F WCI  31
GALESBURG*     CLEAR     32  32 100 SE6       30.04R WCI  27
MACOMB*        CLEAR     32  32 100 SE5       30.06F FOG     WCI  27
JACKSONVILLE*  CLOUDY    33  32  96 SE7       30.05F WCI  27
PITTSFIELD*    MOCLDY    35  33  93 SE3       30.05S
$$

ILZ028>032-037-038-041>044-048-051>054-059>061-190600-
CENTRAL ILLINOIS

CITY           SKY/WX    TMP DP  RH WIND       PRES   REMARKS
PONTIAC        CLOUDY    34  34 100 S8        30.08F FOG     WCI  27
BLOOMINGTON    CLOUDY    33  33 100 S10       30.07F FOG     WCI  25
DECATUR        CLOUDY    35  35 100 SE5       30.08F WCI  31
PEORIA         CLOUDY    33  32  96 S5        30.06F FOG     WCI  29
LACON*         CLOUDY    31  31 100 SE3       30.05S FOG
LINCOLN*       CLOUDY    35  35  99 S6        30.08S FOG     WCI  30
SPRINGFIELD    CLOUDY    38  35  89 S7        30.07F WCI  33
TAYLORVILLE    CLOUDY    37  35  93 SE3       30.08S
$$

ILZ033-039-045-046-055>057-062-063-190600-
EAST-CENTRAL ILLINOIS

CITY           SKY/WX    TMP DP  RH WIND       PRES   REMARKS
CHAMPAIGN      CLOUDY    35  32  88 S9        30.10S WCI  28
RANTOUL*       CLOUDY    35  34  97 S6        30.10S FOG     WCI  30
MATTOON        CLOUDY    35  34  96 SE7       30.08F WCI  29
PARIS*         CLOUDY    34  34  99 SE5       30.12F WCI  30
$$

ILZ079-100>102-190600-
SOUTHWEST ILLINOIS

CITY           SKY/WX    TMP DP  RH WIND       PRES   REMARKS
ALTON          CLOUDY    38  36  91 CALM      30.07F
BELLEVILLE     CLOUDY    40  40  99 E3        30.05F
CAHOKIA*       CLOUDY    43  36  76 SE7       30.05F
SPARTA*        MOCLDY    39  37  93 CALM      30.07F
$$

ILZ064>066-069>071-074>076-080>082-084>086-088>090-092>094-190600-
SOUTH-CENTRAL ILLINOIS

CITY           SKY/WX    TMP DP  RH WIND       PRES   REMARKS
CARBONDALE     CLOUDY    42  40  92 S5        30.07F
CAIRO*         CLOUDY    43  41  92 E5        30.07F
EFFINGHAM*     CLOUDY    38  38  99 E6        30.10F WCI  33
MARION         CLOUDY    43  41  93 E7        30.06F
CENTRALIA*     MOCLDY    41  39  92 E6        30.06F
SALEM*         CLOUDY    41  37  85 E5        30.09F
METROPOLIS*    CLOUDY    44  41  90 CALM      30.09S
$$

ILZ067-068-072-073-078-083-087-091-190600-
SOUTHEAST ILLINOIS

CITY           SKY/WX    TMP DP  RH WIND       PRES   REMARKS
LAWRENCEVILLE  CLOUDY    37  36  96 E7        30.12F WCI  32
FLORA*         CLOUDY    40  37  91 SE5       30.11F
FAIRFIELD*     CLOUDY    39  37  93 CALM      30.09F
HARRISBURG*    MOCLDY    41  39  92 E6        30.08F
ROBINSON*      CLOUDY    36  34  95 CALM      30.14S
CARMI*         MOCLDY    39  38  97 E6        30.10F FOG     WCI  35
$$

ABBREVIATIONS USED IN REMARKS
   TC - TEMPERATURE IN CELSIUS
  WCI - WIND CHILL INDEX
   HX - HEAT INDEX
  VSB - VISIBILITY
$$




USA.gov is the U.S. government's official web portal to all federal, state and local government web resources and services.